Location: Unspecified
(0.0000°N, 0.0000°E)
Time: 15:12:10
(UTC+00:00)

Courier 1B - Pass Details

Date: 11 February 2026
Orbit: 962 x 1208 km, 28.3° (Epoch: 16 March)

Event Time Altitude Azimuth Distance (km) Brightness Sun altitude
Exits shadow 04:07:38 20° 8° (N) 2,294 9.3 -30.6°
Maximum altitude 04:09:05 21° 24° (NNE) 2,213 9.4 -30.2°
Drops below altitude 10° 04:14:13 10° 72° (ENE) 2,868 10.6 -29.0°
Sets 04:17:36 0° 87° (E) 3,778 11.7 -28.2°
